Orbital Elements at Epoch 2458695.5 (2019-Jul-31.0) TDB
Reference: JPL 1 (heliocentric ecliptic J2000)
Element | Value | Uncertainty (1-sigma) | Units |
e | .5469126135606081 | 0.0016695 | |
a | 1.801424134342025 | 0.0059693 | au |
q | .8162025528978722 | 0.0003054 | au |
i | 6.335032977640033 | 0.015328 | deg |
node | 305.2403702406407 | 0.0037526 | deg |
peri | 296.7279552637875 | 0.016337 | deg |
M | 18.95763155856406 | 0.11508 | deg |
tp | 2458648.994537279429 (2019-Jun-14.49453728) | 0.051274 | TDB |
period | 883.1254330313441 2.42 | 4.3896 0.01202 | d yr |
n | .4076431122182649 | 0.0020262 | deg/d |
Q | 2.786645715786178 | 0.0092341 | au |
|
| | Orbit Determination Parameters
Additional Information
|